"Pseudo-MPEC" for CALRCK2

Created 2024 May 21 19:22:05 UT using Find_Orb

Click here for an explanation of pseudo-MPECs

 
 Astrometry: 
     CALRCK2*1C2024 05 11.41593319 03 43.517+44 49 07.21   ~5BAb 20.17GVNEOCPG96
     CALRCK2 1C2024 05 11.42072619 03 43.254+44 49 09.91   ~5BAb 20.18GVNEOCPG96
     CALRCK2 1C2024 05 11.42553119 03 42.966+44 49 11.71   ~5BAb 20.40GVNEOCPG96
     CALRCK2 KC2024 05 11.45175619 03 41.393+44 49 21.83   ~5BBq 20.09GVNEOCPI52
     CALRCK2 KC2024 05 11.46037619 03 40.864+44 49 25.61   ~5BBq 20.34GVNEOCPI52
     CALRCK2 KC2024 05 11.46757119 03 40.414+44 49 28.63   ~5BBq       VNEOCPI52
     CALRCK2 1C2024 05 12.04407 19 03 05.47 +44 53 17.8    ~5C8M 20.9 VXNEOCP033
     CALRCK2 1C2024 05 12.04485 19 03 05.44 +44 53 18.2    ~5C8M 20.8 VXNEOCP033
     CALRCK2 1C2024 05 12.04563 19 03 05.39 +44 53 18.5    ~5C8M 20.9 VXNEOCP033
     CALRCK2 1C2024 05 12.04673 19 03 05.29 +44 53 19.0    ~5C8M 20.8 VXNEOCP033
     CALRCK2 1C2024 05 12.04782 19 03 05.24 +44 53 19.4    ~5C8M 21.0 VXNEOCP033
     CALRCK2 1C2024 05 12.08176 19 03 03.10 +44 53 33.2    ~5C8b 20.9 VXNEOCP033
     CALRCK2 1C2024 05 12.08255 19 03 03.03 +44 53 33.5    ~5C8b 20.6 VXNEOCP033
     CALRCK2 1C2024 05 12.08334 19 03 03.04 +44 53 33.6    ~5C8b 21.0 VXNEOCP033
     CALRCK2 KB2024 05 12.31700 19 02 48.715+44 55 05.66   ~5C87 20.5 GVNEOCP734
     CALRCK2 KC2024 05 12O:-R][4NJ0=cyQ;2mGCVf.7u47.Y9mDha+ADf/Mjsj-LvI^iJ(y6H21
     CALRCK2 KB2024 05 12.32422 19 02 48.230+44 55 08.76   ~5C87 20.3 GVNEOCP734
     CALRCK2  C2024 05 12.32511119 02 48.303+44 55 09.39   ~5C8b 20.3 GVNEOCPH01
     CALRCK2 KC2024 05 12j62$'@7Ag[/Nf*L,nyPgj7:@:R/dZ/!Jyg('-sN.eNJ(4(+LVylpH21
     CALRCK2 mC2024 05 12.32862719 02 48.020+44 55 10.40   ~5C8b 19.85GVNEOCPI52
     CALRCK2 KC2024 05 12RU5f6k#MydGU8/@n^AstrometryjvrbX7n*GGvqy,,fJB1hy^Ac+H21
     CALRCK2 KC2024 05 12vU;qIS;F%$$Lc=s95MEAmp$8=b4[n06c[`w`AU8'[/TuD'@@Nj^RH21
     CALRCK2 mC2024 05 12.33498019 02 47.750+44 55 11.80   ~5C8b 19.48GVNEOCPI52
     CALRCK2  C2024 05 12.33534819 02 47.664+44 55 13.54   ~5C8b 20.2 GVNEOCPH01
     CALRCK2 KC2024 05 12)U;=6c''L=ABn[=Iy/*5?80ct*]HuA!$QpugYn_?i[3Jx6J.@_'3H21
     CALRCK2  C2024 05 12.33988719 02 47.387+44 55 15.30   ~5C8b 20.2 GVNEOCPH01
     CALRCK2 mC2024 05 12.34139219 02 47.320+44 55 15.90   ~5C8b 20.19GVNEOCPI52
     CALRCK2  C2024 05 12.34586619 02 47.007+44 55 17.64   ~5C8b 20.1 GVNEOCPH01
     CALRCK2 mC2024 05 12.34790819 02 46.830+44 55 17.60   ~5C8b       VNEOCPI52
     CALRCK2 0C2024 05 12ID-S(UN#0RT'v_*jx#4Yk^2'bt!!5JEB$'Q,+b9_h@[(J(::sRL;U94
     CALRCK2 0C2024 05 12FGkgF3EN?Q3'DLIe.Qih2q\LD4xE)x!FEGgEZ2sS=,Zb3*'u5pc!U94
     CALRCK2 KB2024 05 13.09920019 02 00.43 +45 00 13.1    ~5D3M 20.2 GXNEOCPI93
     CALRCK2 KB2024 05 13.10580019 02 00.02 +45 00 16.0    ~5D3M 20.4 GXNEOCPI93
     CALRCK2 KB2024 05 13.11238619 01 59.61 +45 00 18.1    ~5D3M 20.1 GXNEOCPI93
     CALRCK2 KC2024 05 13By'fgYeqWAqVh^JuVA\j]oNdjd5-?1`Gw'redacted;=R8^Inap(H21
     CALRCK2 KC2024 05 13eF8a\)D+WcOuR6;cv`WvW04;3]AOS$nSUiyTtW=I,o9!Xi=rGn*1H21
     CALRCK2 KC2024 05 13\Ex?AMMyBoQpo+DHH2qa4)Q+VRy`c\_a!Zi(Yec)YxHW$J%jBg$%H21
     CALRCK2 KC2024 05 13r0[JcAgE[(!;q)O6lXS%0!7h%XG]7M/!bYd^d?)?4TckIuD(_y?MH21
     CALRCK2 KC2024 05 13X\`sw-)RopS=4LSa.V$y%Tw-9P'A/c'i6XP?dE\ZSSoY-t;Xyo7-H21
     CALRCK2 KC2024 05 13.41660819 01 40.616+45 02 16.80   ~5DB7 20.38GVNEOCPI52
     CALRCK2 KC2024 05 13.42372119 01 40.141+45 02 19.46   ~5DB7 19.87GVNEOCPI52
     CALRCK2 KC2024 05 13.43280719 01 39.565+45 02 22.70   ~5DB7 20.16GVNEOCPI52
     CALRCK2 KC2024 05 13.44172719 01 38.996+45 02 26.52   ~5DB7 20.18GVNEOCPI52
     CALRCK2 KB2024 05 13lywA,COY4%SR$i31v\k)^eDq9bK`;L7uGw$LR8Q_k/NXAJnf-RQ+P13
     CALRCK2 KB2024 05 13#Jyfu_[!vW#sO'y's*f9nvZrDF%QR1T0tQIV-y3dLbkKDUd]H33]P13
     CALRCK2 KB2024 05 13+X]1/iv=k,lw/H^.5HZQm_O1nnHp'6S2Hkw1ZsNLYt#Bv;P1cd=0P13
     CALRCK2 DC2024 05 17#FuK:DBA4u.\f+GGYOMlJ*5FEe2b*)raOm3jkUeYPsoqYr8ly^)s695
     CALRCK2 DC2024 05 17(9NjCW*ac=+Urph#D^N#oFySb\'Yd@-.c?JG3?1Bk[1n%ov\ov+u695
     CALRCK2 DC2024 05 179XW@7u`y)#SJxACcc5Dt)JiZ`9Vl/,_A=%39?fBv*PF\qjEZ%i/b695
     CALRCK2 KC2024 05 18mRvTEST9_PVco]OlY3BYI9click#nM\7\y+5u9Z(9iARsRJ6G-?9L06
     CALRCK2 KC2024 05 18@R5SUN1#VG:8y'Pl2_+T7$`an-H3!B?6Pte;wAbk3=E;m7W%w3htL06
     CALRCK2 KB2024 05 18s*h[RU\OtrYn7tE26jS5oMZ$BmlpAv8)m8Xg0k5eZhU$hc:]cgcC106
     CALRCK2 KB2024 05 18k_k7Uf4GBq:ZO[DtJF_^5nc#W#;AD$idcs)nuKe5+nKPhuPMZeBw106
     CALRCK2 KC2024 05 18CS^NDm3Z09T:.O?sKhCUVs+^-qZ*n3*RbNH/;)s.]gf-j^22(gB!L27
     CALRCK2 KC2024 05 19rZ.C:87(vCD$lS?uM2nDRUh6grTvMW5JK';S#9Q'+^ZeNF3LRh:BL27
     CALRCK2 KC2024 05 19U:;cjhCGXms_hereccXDapEu[sunyM69ok-d.w-REeyrJbR3d2%[L27
     CALRCK2 DC2024 05 19WT*Oe)V!BLGOjULwaKforbaw3#PB:f!uCV8M_W0XRB%[25b0v3L]695
     CALRCK2 DC2024 05 191_;;:]U8Q$nCQ.bJ2nl8PXMlhIY;ajT+H9;)QF-i8.CT2/IX!S6N695
     CALRCK2 DC2024 05 19EYR$NmI\I.+b#4mIuGl3/5BAykSxDOw#[U+(XgQArmD``n[.`I=P695
     CALRCK2 KB2024 05 20k9O6lOh6XemmtxuSfN8sryZ@4B']91(R`ryi`iH%];5k-!q[:k-mY66
     CALRCK2 KB2024 05 20%N'!U?:f!GtFoZi=`L3:b$!=u\1@i$E=`LY;lZrTbhi+_)XLwtPxY66
     CALRCK2 KB2024 05 20kZ#F#[FuuFGT;:iWfws.f%HI]tF1KDV+X3Q\oQWDxXymLBKm?D!`Y66
     CALRCK2 KB2024 05 20II/`DVKIT(T3;_Id7Z/i8b\?*a2#,3c/7sp[)u^]#8Jsws]hSF1FY66
     CALRCK2 KB2024 05 20.Hel/QpodY%!,O65JtsNfCGq^,J+rpm@5`)fVy+i$`vSQ1WK^+8\M45
     CALRCK2 KB2024 05 20,0Skpexplanation#PhNCb=)l^9Ei]#)Y0ZDg`)MR?Ybr$XOT!WxM45

Station data:
(033) Karl Schwarzschild Observatory, Tautenburg  (N50.980139 E11.711240)
   Germany.  Observer B. Stecklum. 1.34-m f/3 Schmidt + CCD.
(106) Črni Vrh  (N45.945905 E14.071100)  Slovenia.  Observer J. Skvarč. 0.6-m
   f/3.3 Deltagraph + CCD.
(695) Kitt Peak  (N31.958395 W111.594670)  US/Arizona. Measurer S. Deen.
   3.5-m f/1.75 reflector + CCD0.9-m f/7.5 reflector + CCD4.0-m
   Ritchey-Chrétien + CCD0.61-m f/3.5 Schmidt + CCD2.3-m f/9 reflector + CCD.
(734) Farpoint Observatory, Eskridge  (N38.890239 W96.002420)  US/Kansas.
   Observer G. Hug. 0.69-m reflector + CCD.
(G96) Mt. Lemmon Survey  (N32.442729 W110.788720)  US/Arizona.  Observer E.
   J. Christensen. 1.5-m reflector + 10K CCD.
(H01) Magdalena Ridge Observatory, Socorro  (N33.984833 W107.189333)  US/New
   Mexico.  Observers W. H. Ryan, E. V. Ryan. Measurer W. H. Ryan. 2.4-m
   f/8.9 reflector + CCD.
(H21) Astronomical Research Observatory, Westfield  (N39.483054 W87.968270)
   US/Illinois.  Observer R. Holmes. Measurers S. Foglia, L. Buzzi, T.
   Linder, R. Holmes. 0.76-m f/3.0 astrograph + CCD0.81-m f/4.0 astrograph +
   CCD0.61-m f/4.5 astrograph + CCD0.40-m f/5.32 astrograph + CCD.
(I52) Steward Observatory, Mt. Lemmon Station  (N32.442570 W110.788920)
   US/Arizona.  Observers T. A. Pruyne, B. M. Africano, E. J. Christensen, G.
   A. Farneth, D. C. Fuls, A. R. Gibbs, A. D. Grauer, H. Gröller, J. A.
   Johnson, R. A. Kowalski, S. M. Larson, G. J. Leonard, D. Rankin, R. L.
   Seaman, F. C. Shelly, K. W. Wierzchoś. 1.0-m prime focus + CCD.
(I93) St Pardon de Conques  (N44.558670 W0.202960)  France.  Observers F.
   Losse, W. D'Anna. Measurer F. Losse. 0.40-m f/3.7 reflector + CCD.
(L06) Sormano 2 Observatory, Bellagio Via Lattea  (N45.970100 E9.254030)
   Italy.  Observer G. Ventre. Measurers G. Ventre, P. Sicoli. 0.28-m f/10
   reflector + CCD.
(L27) 29PREMOTE Observatory, Dauban  (N43.999832 E5.647040)  France.
   Observer J.-F. Soulier. 0.20-m f/4 Newtonian reflector + CCD.
(M45) Starhopper Observatory, Sfantu Gheorghe  (N45.865582 E25.768900)
   Romania.  Observer F. Ursache. 0.41-m f/7.5 reflector + CMO.
(P13) Baihuashan Observatory, Beijing  (N39.837554 E115.573330)  China.
(U94) iTelescope Observatory, Beryl Junction  (N37.737780 W113.697500)
   US/Utah.  Observer H. Sato. 0.51-m f/4.5 Corrected Dall-Kirkham +
   CCD0.51-m f/6.8 astrograph + f/4.5 focal reducer + CCD.
(Y66) Two-Meter Twin Telescope, TTT2, Teide  (N28.298728 W16.509470)  Canary
   Islands (Spain).

Orbital elements:  CALRCK2
   Perihelion 2025 May 2.69120 +/- 5.38 TT = 16:35:19 (JD 2460798.19120)
Epoch 2024 May 20.0 TT = JDT 2460450.5   Ne: 0.9424              AutoNEOCP
M 359.99926773 +/- 0.033            (J2000 ecliptic)
n   0.00000210 +/-                  Peri.  128.75630 +/- 0.7
a6027.73108 +/-                     Node    19.44132 +/- 0.21
e   0.9990603 +/- 0.034             Incl.  117.53131 +/- 0.0043
P 467983                   H 12.18  G  0.15   U  6.4
q 5.66399075 +/- 0.0267    Q 12049.7981 +/- 969820
From 65 observations 2024 May 11-20; mean residual 0".38
Residuals in arcseconds: 
240511 G96  .20-  .45-    240512 I52  .60+  1.4-    240513 P13  .62-  .47+    
240511 G96  .11+  .32+    240512 H01  .00   .22+    240513 P13  .30+  .68-    
240511 G96  .16+  .19+    240512 H21  .23+  .27+    240517 695  .29-  .16+    
240511 I52  .45+  .23-    240512 H01  .04+  .17+    240517 695  .32-  .30+    
240511 I52  .42+  .09+    240512 I52  .25+  .18+    240517 695  .25-  .14+    
240511 I52  .31+  .23+    240512 H01  .06-  .13+    240518 L06  .37+  .39-    
240512 033  .20+  .09+    240512 I52  .67-  .72-    240518 L06  .29+  .47-    
240512 033  .39+  .18+    240512 U94  .01+  .21+    240518 106  1.1+  .19+    
240512 033  .37+  .16+    240512 U94  .12+  .20-    240518 106  .14+  .37-    
240512 033  .03+  .23+    240513 I93  .30+  .16+    240518 L27  .44+  1.0+    
240512 033  .21+  .19+    240513 I93  .35+  .48+    240519 L27  .13+  .38+    
240512 033  .33-  .48+    240513 I93  .40+  .00     240519 L27  .47-  .14+    
240512 033  .56-  .46+    240513 H21  .15-  .31-    240519 695  .25-  .12+    
240512 033  .06+  .25+    240513 H21  .08+  .47-    240519 695  .29-  .10+    
240512 734  .67-  .34-    240513 H21  .12-  .03-    240519 695  .31-  .18+    
240512 H21  .03-  .25+    240513 H21  .21-  .08-    240520 Y66  .36+  .24-    
240512 734  1.1-  .12-    240513 H21  .30-  .24-    240520 Y66  .02-  .13-    
240512 H01  .06+  .15+    240513 I52  .43+  .17+    240520 Y66  .55-  .30-    
240512 H21  .14+  .08-    240513 I52  .17+  .06+    240520 Y66  .46-  .64+    
